DW4127 Weather Reports


Display with metric or nautical units.
time (UTC)temp
F
wind
direction
speed
MPH
gust
MPH
rain 1hr
in
rain 24hr
in
rain mn
in
humidity
%
barometer
mb
20260901080536 84 113 1.0 2.0 0.00 0.00 0.00 60 1015.1
20260901075556 85 113 3.0 6.0 0.00 0.00 0.00 59 1015.3
20260901074537 85 90 1.0 6.0 0.00 0.00 0.00 58 1015.2
20260901073536 85 90 2.0 4.0 0.00 0.00 0.00 58 1015.2
20260901072537 86 90 1.0 3.0 0.00 0.00 0.00 57 1015.1
20260901071537 86 90 1.0 4.0 0.00 0.00 0.00 57 1015.1
20260901070536 86 90 2.0 4.0 0.00 0.00 0.00 56 1015.0
20260901065536 86 90 2.0 7.0 0.00 0.00 0.00 56 1015.1
20260901064536 86 90 2.0 4.0 0.00 0.00 0.00 56 1015.0
20260901063536 86 90 2.0 5.0 0.00 0.00 0.00 56 1014.9
20260901062536 87 90 2.0 7.0 0.00 0.00 0.00 55 1014.9
20260901061536 87 90 2.0 5.0 0.00 0.00 0.00 55 1014.8
20260901060536 87 90 3.0 7.0 0.00 0.00 0.00 54 1014.7
20260901055536 87 90 3.0 7.0 0.00 0.00 0.00 54 1014.6
20260901054536 87 90 3.0 7.0 0.00 0.00 0.00 54 1014.4
20260901053536 87 90 2.0 9.0 0.00 0.00 0.00 54 1014.4
20260901052536 87 90 3.0 7.0 0.00 0.00 0.00 53 1014.4
20260901051536 88 90 3.0 5.0 0.00 0.00 0.00 53 1014.3
20260901050536 88 90 2.0 6.0 0.00 0.00 0.00 53 1014.3
20260901045556 88 90 2.0 5.0 0.00 0.00 0.00 53 1014.1
20260901044616 88 68 1.0 3.0 0.00 0.00 0.00 52 1014.0
20260901043555 88 68 1.0 3.0 0.00 0.00 0.00 51 1014.1
20260901042535 88 90 3.0 8.0 0.00 0.00 0.00 51 1014.0
20260901041535 87 0.0 0.0 0.00 0.00 0.00 52 1013.9
20260901040536 88 0.0 1.0 0.00 0.00 0.00 50 1013.9
20260901035535 88 0.0 0.0 0.00 0.00 0.00 49 1013.9
20260901034535 89 0.0 2.0 0.00 0.00 0.00 47 1013.8
20260901033536 89 90 1.0 3.0 0.00 0.00 0.00 47 1013.8
20260901032536 89 0.0 2.0 0.00 0.00 0.00 47 1013.8
20260901031535 89 0.0 0.0 0.00 0.00 0.00 47 1013.7
20260901030536 90 0.0 0.0 0.00 0.00 0.00 48 1013.7
20260901025535 91 0.0 0.0 0.00 0.00 0.00 45 1013.5
20260901024535 91 0.0 0.0 0.00 0.00 0.00 45 1013.3
20260901023535 92 90 1.0 3.0 0.00 0.00 0.00 44 1013.2
20260901022536 92 90 1.0 2.0 0.00 0.00 0.00 43 1013.1
20260901021535 93 90 1.0 3.0 0.00 0.00 0.00 42 1013.0
20260901020535 93 113 1.0 4.0 0.00 0.00 0.00 42 1012.9
20260901015535 93 90 2.0 7.0 0.00 0.00 0.00 41 1012.9
20260901014535 94 113 2.0 6.0 0.00 0.00 0.00 38 1012.8
20260901013535 94 90 1.0 3.0 0.00 0.00 0.00 38 1012.8
20260901012535 95 90 2.0 6.0 0.00 0.00 0.00 37 1012.7
20260901011536 95 90 2.0 7.0 0.00 0.00 0.00 37 1012.7
20260901010535 96 90 2.0 7.0 0.00 0.00 0.00 36 1012.6
20260901005535 96 90 3.0 8.0 0.00 0.00 0.00 36 1012.5
20260901004535 97 90 4.0 11.0 0.00 0.00 0.00 35 1012.5
20260901003535 97 68 2.0 7.0 0.00 0.00 0.00 35 1012.4
20260901002535 98 68 3.0 7.0 0.00 0.00 0.00 35 1012.5
20260901001536 98 90 4.0 10.0 0.00 0.00 0.00 35 1012.5
20260901000555 98 68 5.0 12.0 0.00 0.00 0.00 34 1012.4
20260831235555 98 68 3.0 8.0 0.00 0.00 0.00 35 1012.5
20260831234535 99 68 2.0 10.0 0.00 0.00 0.00 34 1012.7
20260831233535 99 68 3.0 7.0 0.00 0.00 0.00 34 1012.6
20260831232535 99 90 4.0 9.0 0.00 0.00 0.00 32 1012.5
20260831231535 100 90 3.0 8.0 0.00 0.00 0.00 33 1012.5
20260831230535 100 113 3.0 7.0 0.00 0.00 0.00 32 1012.5
20260831225535 100 113 5.0 10.0 0.00 0.00 0.00 33 1012.7
20260831224535 101 90 1.0 5.0 0.00 0.00 0.00 32 1012.7
20260831223535 101 90 4.0 9.0 0.00 0.00 0.00 32 1012.7
20260831222555 103 90 3.0 7.0 0.00 0.00 0.00 32 1012.9
20260831221535 101 90 4.0 12.0 0.00 0.00 0.00 32 1012.9
20260831220555 102 90 4.0 9.0 0.00 0.00 0.00 31 1013.0
20260831215535 103 90 3.0 9.0 0.00 0.00 0.00 31 1013.2
20260831214535 102 90 5.0 10.0 0.00 0.00 0.00 33 1013.2
20260831213535 102 90 5.0 12.0 0.00 0.00 0.00 32 1013.3
20260831212535 102 90 3.0 9.0 0.00 0.00 0.00 32 1013.3
20260831211535 102 90 4.0 8.0 0.00 0.00 0.00 33 1013.5
20260831210535 102 90 6.0 15.0 0.00 0.00 0.00 32 1013.6
20260831205535 102 68 6.0 14.0 0.00 0.00 0.00 34 1013.8
20260831204535 101 90 3.0 8.0 0.00 0.00 0.00 32 1013.9
20260831203535 101 135 5.0 10.0 0.00 0.00 0.00 33 1014.0
20260831202535 101 113 3.0 11.0 0.00 0.00 0.00 33 1014.1
20260831201655 102 90 2.0 7.0 0.00 0.00 0.00 35 1014.2
20260831200555 98 113 4.0 9.0 0.00 0.00 0.00 37 1014.5
20260831195535 100 90 3.0 10.0 0.00 0.00 0.00 37 1014.6
20260831194535 97 135 4.0 9.0 0.00 0.00 0.00 37 1014.6
20260831193535 98 113 2.0 7.0 0.00 0.00 0.00 37 1014.9
20260831192535 98 90 6.0 13.0 0.00 0.00 0.00 38 1015.0
20260831191535 99 113 5.0 12.0 0.00 0.00 0.00 39 1015.0
20260831190535 98 113 4.0 11.0 0.00 0.00 0.00 38 1015.1
20260831185535 101 90 4.0 9.0 0.00 0.00 0.00 35 1015.2
20260831184535 99 90 4.0 9.0 0.00 0.00 0.00 38 1015.2
20260831183555 99 90 5.0 13.0 0.00 0.00 0.00 37 1015.3
20260831182535 99 113 5.0 11.0 0.00 0.00 0.00 37 1015.5
20260831181535 98 113 5.0 11.0 0.00 0.00 0.00 37 1015.6
20260831180535 98 68 4.0 11.0 0.00 0.00 0.00 40 1015.8
20260831175535 97 158 5.0 9.0 0.00 0.00 0.00 41 1016.0
20260831174535 96 158 3.0 9.0 0.00 0.00 0.00 44 1016.2
20260831173535 97 158 2.0 7.0 0.00 0.00 0.00 45 1016.4
20260831172535 96 135 3.0 10.0 0.00 0.00 0.00 44 1016.4
20260831171535 96 90 3.0 7.0 0.00 0.00 0.00 45 1016.6
20260831170535 95 113 5.0 10.0 0.00 0.00 0.00 46 1016.6
20260831165535 95 113 4.0 9.0 0.00 0.00 0.00 46 1016.7
20260831164535 94 90 4.0 10.0 0.00 0.00 0.00 47 1016.7
20260831163535 94 113 4.0 9.0 0.00 0.00 0.00 48 1016.7
20260831162535 93 113 2.0 6.0 0.00 0.00 0.00 50 1016.7
20260831161555 92 158 3.0 8.0 0.00 0.00 0.00 51 1016.7
20260831160535 92 113 4.0 7.0 0.00 0.00 0.00 51 1016.7
20260831155535 92 90 4.0 11.0 0.00 0.00 0.00 49 1016.7
20260831154535 91 113 4.0 8.0 0.00 0.00 0.00 51 1016.8
20260831153535 90 158 3.0 8.0 0.00 0.00 0.00 53 1016.8
20260831152535 90 113 4.0 8.0 0.00 0.00 0.00 54 1016.7
20260831151535 89 113 3.0 7.0 0.00 0.00 0.00 56 1016.7
20260831150535 88 113 3.0 7.0 0.00 0.00 0.00 59 1016.6
20260831145535 88 135 2.0 7.0 0.00 0.00 0.00 60 1016.6
20260831144535 87 135 3.0 6.0 0.00 0.00 0.00 61 1016.5
20260831143535 86 113 3.0 10.0 0.00 0.00 0.00 62 1016.5
20260831142535 86 158 2.0 6.0 0.00 0.00 0.00 63 1016.5
20260831141535 85 135 3.0 5.0 0.00 0.00 0.00 65 1016.5
20260831140535 85 113 2.0 5.0 0.00 0.00 0.00 66 1016.5
20260831135535 84 135 3.0 6.0 0.00 0.00 0.00 67 1016.3
20260831134535 83 135 2.0 5.0 0.00 0.00 0.00 68 1016.3
20260831133535 83 158 2.0 5.0 0.00 0.00 0.00 68 1016.2
20260831132555 82 135 2.0 5.0 0.00 0.00 0.00 70 1016.1
20260831131535 81 135 2.0 6.0 0.00 0.00 0.00 70 1015.9
20260831130535 81 90 3.0 5.0 0.00 0.00 0.00 70 1015.7
20260831125535 80 90 2.0 6.0 0.00 0.00 0.00 71 1015.8
20260831124555 80 90 2.0 3.0 0.00 0.00 0.00 71 1015.5
20260831123535 80 90 2.0 5.0 0.00 0.00 0.00 71 1015.4
20260831122534 80 90 2.0 4.0 0.00 0.00 0.00 70 1015.2
20260831121535 81 90 3.0 6.0 0.00 0.00 0.00 70 1015.2
20260831120535 81 90 2.0 4.0 0.00 0.00 0.00 70 1015.1
20260831115535 81 113 2.0 6.0 0.00 0.00 0.00 70 1014.9
20260831114535 81 113 2.0 4.0 0.00 0.00 0.00 70 1014.7
20260831113555 81 113 2.0 4.0 0.00 0.00 0.00 70 1014.7
20260831112535 81 113 2.0 9.0 0.00 0.00 0.00 69 1014.6
20260831111534 81 113 1.0 4.0 0.00 0.00 0.00 69 1014.4
20260831110555 81 113 1.0 3.0 0.00 0.00 0.00 69 1014.3
20260831105537 81 113 1.0 3.0 0.00 0.00 0.00 68 1014.3
20260831104537 82 113 1.0 3.0 0.00 0.00 0.00 68 1014.2
20260831103557 82 113 1.0 4.0 0.00 0.00 0.00 68 1014.3
20260831102537 82 113 1.0 3.0 0.00 0.00 0.00 67 1014.3
20260831101537 82 113 1.0 3.0 0.00 0.00 0.00 67 1014.3
20260831100536 82 90 1.0 2.0 0.00 0.00 0.00 67 1014.4
20260831095537 83 90 2.0 4.0 0.00 0.00 0.00 66 1014.3
20260831094536 83 113 2.0 6.0 0.00 0.00 0.00 65 1014.2
20260831093536 83 90 1.0 3.0 0.00 0.00 0.00 64 1014.3
20260831092536 83 113 2.0 7.0 0.00 0.00 0.00 63 1014.2
20260831091557 84 135 2.0 8.0 0.00 0.00 0.00 62 1014.1
20260831090537 84 113 2.0 6.0 0.00 0.00 0.00 61 1014.0
20260831085536 85 113 2.0 4.0 0.00 0.00 0.00 60 1014.0
20260831084536 85 135 1.0 2.0 0.00 0.00 0.00 59 1013.9
20260831083557 85 135 2.0 4.0 0.00 0.00 0.00 58 1014.0
20260831082536 85 158 2.0 4.0 0.00 0.00 0.00 57 1013.8
20260831081557 85 158 3.0 7.0 0.00 0.00 0.00 57 1013.9